Theta_e
308 300 297 297 299 301 302 302 302 303 302 300 300 299 297 298 299 301 300 300 301 298 299 300 301 301 302 303 300 299 299 299 299 298 298 298 298 297 298 297 298 298 297 298 298 298 298 299 299 299 299 300 300 301 302 303 302 303 304 305 303 305 306 306 305 303 301 299 297 297 296 295 296 296 296 296 296 296 296 297 297 297 297 298 298 299
303 298 299 302 303 304 304 304 303 302 301 299 298 298 297 299 297 301 300 299 300 298 299 302 300 300 301 303 302 299 298 298 298 298 298 298 298 298 297 297 297 297 297 297 297 297 298 298 299 299 299 299 299 299 301 301 302 303 303 303 303 303 303 303 302 301 300 300 299 297 296 296 296 296 295 294 294 295 295 296 296 296 296 296 296 296
298 296 300 304 306 305 303 303 303 301 299 300 298 298 297 298 301 302 299 299 299 297 297 300 298 299 301 303 301 299 298 300 301 300 300 298 297 297 297 297 297 296 297 296 296 297 297 298 298 298 298 298 298 299 299 300 301 302 302 302 302 302 302 301 301 300 298 298 298 297 295 295 293 294 294 294 294 294 294 294 294 295 295 295 295 295
295 299 302 305 304 302 300 301 300 300 300 298 298 296 294 300 298 295 297 298 297 297 297 298 296 298 301 303 301 301 300 301 300 299 299 299 297 297 297 297 296 296 296 295 296 296 297 298 298 298 297 297 298 298 298 299 300 300 301 301 300 299 299 298 297 297 297 296 296 296 296 295 294 292 293 293 293 293 293 292 293 294 294 294 294 294
298 302 304 304 302 301 299 299 298 297 296 299 299 298 297 298 299 297 298 297 298 298 298 297 295 296 299 299 299 299 299 296 295 295 295 296 298 298 298 297 297 296 296 296 295 296 296 296 297 297 297 297 297 297 297 298 298 299 300 300 299 298 297 296 296 296 296 295 295 294 294 294 293 293 292 292 291 291 291 292 292 292 293 293 293 293
300 302 303 300 301 300 300 297 298 299 296 298 300 299 299 300 298 299 300 296 296 296 297 296 290 293 301 302 302 295 294 294 295 294 294 295 295 295 294 295 296 297 297 296 295 296 297 296 296 296 297 297 296 296 296 297 298 299 299 298 298 298 297 296 296 296 296 295 294 294 293 292 291 290 290 289 289 289 290 290 291 292 292 292 292 292
301 301 302 300 300 300 299 299 300 300 297 296 298 302 300 299 299 299 298 296 291 290 296 297 291 289 299 298 299 294 294 294 294 293 295 295 295 294 294 295 295 294 295 296 296 295 295 296 296 296 296 296 295 295 296 296 297 298 298 298 297 297 296 297 297 297 297 297 296 295 294 293 291 289 290 291 291 290 290 291 290 290 291 292 291 292
300 298 300 301 299 299 298 296 300 299 297 295 299 301 301 300 298 298 298 296 294 300 297 295 295 290 290 297 300 298 295 295 293 293 294 295 295 294 295 295 295 295 294 294 294 295 296 296 296 295 295 295 294 294 294 295 296 296 296 296 296 295 295 296 296 297 297 296 295 294 293 292 291 290 289 290 290 291 291 290 289 290 290 291 291 291
300 297 299 298 298 298 296 300 303 301 298 298 298 301 300 299 299 299 297 295 296 294 290 293 296 289 289 296 299 297 295 295 294 294 294 295 295 295 295 295 295 295 295 295 294 294 294 294 294 294 293 293 293 294 294 294 294 295 295 295 294 294 294 295 296 296 296 295 294 293 292 291 291 291 291 291 291 290 291 290 290 289 289 289 290 290
300 300 301 301 299 296 301 299 301 302 297 299 300 300 299 299 298 299 296 295 294 291 286 292 295 288 289 297 297 297 296 297 299 298 295 295 295 294 294 295 295 295 295 295 295 294 294 294 293 293 293 292 292 292 293 293 294 294 294 293 293 293 294 294 295 295 295 294 294 293 292 291 290 291 291 291 290 290 290 289 289 289 289 289 289 289
298 297 299 300 299 301 297 296 296 300 299 300 301 299 297 297 296 296 296 294 291 285 287 293 295 292 286 295 297 296 296 299 301 300 297 296 296 295 295 295 294 294 294 294 294 293 293 293 292 291 291 291 291 292 292 293 293 293 293 293 292 292 293 294 294 294 294 294 294 293 293 292 291 291 291 290 289 289 289 289 289 289 289 289 288 289
298 298 299 300 299 299 300 296 297 297 300 301 297 296 296 292 294 292 291 292 286 284 291 294 295 295 285 291 298 302 300 301 301 297 295 295 295 294 295 294 294 294 293 293 293 292 291 291 290 291 290 290 290 291 291 292 293 293 292 292 291 292 293 293 294 294 294 294 294 294 293 292 292 292 291 290 289 289 289 289 288 288 288 288 288 288
294 296 300 299 298 299 298 297 295 297 296 298 297 295 290 289 287 285 287 283 284 285 287 289 294 291 290 295 300 301 299 299 300 300 297 296 295 295 295 294 294 294 293 292 292 291 291 290 289 290 289 289 289 290 291 291 292 292 292 291 291 291 292 292 293 293 293 293 293 293 293 292 292 292 291 290 290 290 289 289 288 288 287 287 287 287
295 299 299 299 297 299 301 294 291 291 293 295 294 292 289 286 285 282 285 287 287 288 288 289 292 288 294 295 300 300 298 298 297 298 300 298 296 295 294 294 293 293 293 292 292 291 291 290 290 290 289 289 289 290 290 291 291 291 291 291 291 291 292 292 292 292 292 292 292 292 292 291 291 291 291 290 289 289 289 289 288 287 287 286 286 286
289 289 294 297 293 300 299 299 299 297 293 294 299 296 291 291 287 283 285 283 284 287 285 290 286 286 286 292 294 294 293 295 294 295 298 298 297 296 295 294 293 293 292 292 292 291 291 291 290 290 289 289 290 289 290 290 291 291 291 291 290 290 291 291 291 291 291 291 291 291 291 291 290 290 289 289 289 288 288 288 287 287 287 286 286 285
293 294 300 301 301 299 298 302 304 301 295 296 298 300 293 290 297 288 288 286 285 285 283 284 286 292 293 295 296 293 293 292 294 293 295 296 295 295 293 292 292 292 292 292 292 291 291 291 290 290 289 290 289 289 290 290 291 291 291 291 290 290 290 291 291 291 290 290 291 291 290 290 290 289 289 289 289 288 288 287 287 286 286 286 285 286
294 292 297 298 299 299 299 302 301 303 289 294 295 290 293 299 296 290 285 286 284 285 284 288 287 291 297 296 293 292 291 291 292 292 294 295 295 294 293 292 292 292 292 291 291 291 290 290 290 290 289 289 289 289 289 290 291 291 290 290 290 290 290 290 290 290 290 290 290 290 289 289 289 289 288 287 287 287 287 287 286 286 286 286 286 285
292 294 292 296 293 295 294 298 301 299 301 295 289 294 298 300 298 291 286 287 285 283 285 288 286 289 289 287 292 291 290 291 292 291 293 294 294 293 293 293 292 292 292 292 292 292 291 290 290 290 290 289 289 289 289 289 291 291 291 290 289 289 289 289 290 289 289 289 289 289 289 289 288 288 287 287 286 286 286 286 286 286 285 285 285 285
300 291 293 295 296 295 296 297 296 299 299 296 294 302 292 287 286 291 288 281 282 282 284 288 289 289 291 292 290 292 292 292 291 292 291 292 292 292 293 293 293 293 292 291 291 291 290 290 290 289 289 289 289 289 289 290 290 290 290 290 290 289 289 289 289 289 289 289 289 289 288 288 287 287 287 287 287 287 286 285 285 285 284 285 285 284
301 291 291 291 294 295 295 295 288 292 296 296 297 295 300 294 291 288 288 288 288 284 284 285 287 285 293 295 295 295 295 295 293 291 291 291 292 293 293 293 293 292 292 292 291 291 291 290 289 289 289 288 288 288 289 289 289 289 290 289 289 289 289 289 288 288 288 289 289 288 288 287 287 287 287 287 286 286 285 285 285 284 284 284 284 283
295 298 289 289 294 294 288 292 291 293 289 289 290 291 293 290 293 292 293 289 287 285 285 285 284 287 294 299 299 298 298 297 294 292 292 292 292 294 294 294 293 293 292 292 292 292 291 290 289 289 289 288 288 288 288 288 288 289 289 289 289 288 288 288 288 288 288 288 287 287 286 286 286 286 286 286 286 285 285 284 284 284 284 283 283 283
292 294 289 288 287 288 292 297 297 298 297 293 292 290 292 289 287 285 284 293 289 286 284 285 283 290 298 298 300 300 300 299 297 295 293 293 293 294 295 295 295 293 293 293 292 292 291 290 289 289 288 288 288 287 287 287 288 288 288 289 288 288 288 287 287 288 287 287 287 286 286 286 286 285 285 285 284 284 284 283 283 283 283 282 282 282
299 297 292 288 288 290 295 294 296 295 294 297 295 293 296 294 292 288 283 286 287 288 287 287 284 287 296 297 297 296 295 297 298 297 295 294 293 294 295 296 296 295 294 293 293 292 291 290 289 288 288 287 287 287 287 287 287 287 288 288 288 287 287 288 288 288 287 287 286 286 286 285 285 285 284 284 283 282 282 282 282 282 281 281 281 281
295 289 289 291 294 294 293 296 296 295 296 293 294 295 293 292 293 291 290 289 287 287 285 286 283 288 293 295 295 293 292 293 296 298 296 295 295 294 295 295 295 295 294 294 293 292 291 289 289 288 287 287 286 286 286 287 287 287 287 288 288 287 287 287 287 287 287 286 286 285 285 284 284 284 283 282 282 281 281 281 281 281 280 280 280 279
289 289 291 288 287 289 290 292 292 294 293 290 291 293 293 295 296 293 289 290 287 288 287 287 282 289 293 292 293 292 292 291 293 295 297 296 296 295 295 295 295 295 294 293 292 291 290 289 288 287 287 287 287 287 286 286 287 287 287 288 287 287 288 287 287 287 286 286 285 284 284 283 283 283 282 282 281 281 280 280 280 279 279 279 279 279
293 290 289 285 282 281 281 282 284 285 287 290 291 292 294 293 292 290 286 288 285 288 288 287 287 293 292 292 293 292 292 292 292 294 295 298 296 295 295 294 295 294 294 292 291 290 289 289 289 288 287 287 287 287 286 287 287 287 287 287 288 287 287 287 287 286 286 285 284 284 283 282 282 282 282 282 281 280 280 279 279 278 278 278 278 278
291 291 292 291 289 288 291 292 297 296 289 286 289 290 292 293 293 291 290 287 285 288 287 289 290 291 289 292 291 293 290 292 292 293 293 293 295 295 295 294 294 294 293 292 291 290 290 289 288 288 288 288 287 287 287 287 287 287 287 287 287 288 287 287 286 286 285 284 283 283 282 282 282 282 282 281 280 280 279 279 278 278 277 278 277 277
287 288 290 292 292 293 296 293 296 296 291 292 290 289 291 290 290 288 287 286 291 288 285 291 294 290 291 292 293 294 293 294 296 295 294 294 294 294 294 293 292 292 292 291 290 289 289 289 289 288 288 288 287 287 287 287 287 287 287 287 287 287 287 287 286 285 284 283 282 282 282 283 283 283 282 281 280 279 278 278 277 277 277 277 276 276
289 288 292 292 290 294 297 295 295 295 295 294 293 292 289 290 288 286 287 291 292 288 286 293 293 290 293 294 295 295 295 295 297 297 297 296 295 293 292 291 290 290 290 290 290 290 289 289 289 289 289 288 288 287 287 287 287 287 287 287 287 287 286 286 285 284 283 283 283 283 283 283 283 282 281 280 279 278 277 277 277 276 276 276 276 276
289 288 291 291 289 291 293 294 294 292 293 293 293 294 293 291 289 289 289 291 291 290 292 293 293 293 297 296 296 297 298 298 297 296 294 294 292 292 291 290 290 290 290 289 290 290 290 290 290 290 289 288 287 287 287 287 287 286 286 286 286 286 286 285 284 284 283 283 283 283 283 283 282 281 280 279 278 277 277 276 276 275 275 275 275 274
291 288 292 291 288 288 291 293 294 291 291 289 292 293 293 292 290 290 289 290 290 290 291 292 291 291 298 299 298 299 298 296 295 294 294 295 293 291 291 290 290 289 290 290 290 290 291 291 291 290 289 288 288 287 287 287 287 287 286 286 285 285 285 285 284 284 283 283 283 284 283 282 281 280 279 278 278 277 276 276 275 274 274 274 273 273
290 287 290 290 286 286 289 289 290 289 289 288 288 290 291 292 289 289 288 290 289 287 289 289 288 289 296 299 296 295 295 295 295 295 294 294 293 291 290 290 290 290 290 290 290 291 291 291 290 289 289 288 288 288 287 287 287 286 286 286 285 285 285 285 284 284 284 284 284 284 282 281 280 279 279 278 277 276 275 275 274 273 273 273 272 272
288 288 287 287 285 285 289 289 288 286 285 283 285 288 291 292 293 292 292 293 292 292 288 286 287 294 295 295 293 291 292 293 292 292 293 293 293 292 291 291 291 291 291 291 291 291 291 291 291 290 290 289 289 288 288 288 287 286 286 285 285 285 285 284 284 284 284 284 284 283 282 281 280 279 278 277 276 275 274 273 272 272 272 271 272 272
288 287 287 289 283 285 283 285 286 283 277 280 289 291 294 291 292 289 289 290 292 292 290 292 292 292 292 292 292 290 289 289 291 293 294 294 293 292 292 292 293 292 292 292 292 291 291 291 291 291 290 290 290 289 289 288 287 287 287 286 286 285 285 284 284 284 284 284 284 283 282 281 279 279 277 276 275 274 272 272 271 272 272 272 271 271
286 286 286 287 285 281 281 285 281 276 279 286 283 287 289 295 294 291 291 292 291 292 291 290 289 291 291 292 293 293 292 292 292 294 294 295 295 293 292 293 293 293 293 292 292 291 291 291 291 291 290 290 289 289 289 288 288 287 287 286 286 285 285 285 284 284 284 284 284 283 281 281 279 278 277 275 274 273 272 271 271 272 271 271 271 271
287 286 287 285 285 282 279 282 276 278 284 285 285 285 291 294 294 292 290 292 292 292 291 290 291 292 291 291 287 288 291 288 289 289 292 292 294 294 293 293 294 293 292 293 292 292 291 291 291 290 290 291 290 290 289 288 288 287 287 287 286 286 285 285 284 284 284 284 283 282 281 280 279 278 276 274 273 272 272 271 271 270 271 271 271 271
290 288 288 283 286 279 280 281 282 287 285 283 283 286 290 289 291 290 285 289 293 293 291 290 291 290 288 287 286 286 286 288 288 291 290 289 289 292 294 294 294 293 293 293 293 293 293 292 292 291 291 290 290 289 289 289 288 288 287 287 287 286 286 285 284 284 284 283 283 282 281 280 279 277 275 274 272 272 272 271 271 270 271 270 271 270
289 287 287 285 283 286 281 279 280 281 278 285 286 291 291 288 294 295 292 288 289 291 292 291 290 287 286 284 285 285 288 288 287 289 290 288 289 290 292 293 293 293 293 292 291 291 292 292 292 291 291 290 289 289 289 289 288 288 287 286 286 285 285 284 284 285 284 283 283 282 281 280 279 277 275 274 272 272 272 272 271 270 270 269 270 269
285 286 285 285 283 281 280 279 279 278 282 286 285 286 285 286 290 288 286 283 288 286 289 290 290 288 286 285 284 285 287 286 287 291 291 289 289 290 289 288 288 289 289 289 289 288 289 289 290 289 289 289 288 288 288 287 287 287 286 286 285 285 284 284 284 284 284 283 283 282 280 279 278 277 275 274 273 272 272 271 271 270 269 269 270 269
283 284 285 282 281 282 281 280 278 284 283 285 284 283 284 284 289 288 277 278 287 286 289 289 289 287 286 286 285 287 288 286 288 291 288 289 288 289 289 288 287 287 287 288 288 288 287 286 286 286 286 287 287 288 287 286 286 285 285 285 285 284 283 284 285 285 285 284 283 281 280 279 278 277 275 274 273 272 272 271 270 269 268 268 268 268
281 281 283 280 282 282 282 280 283 283 288 285 284 284 284 284 287 280 276 284 284 284 286 289 288 287 287 285 287 286 289 289 287 286 287 286 286 286 287 288 288 288 287 286 286 286 285 285 286 285 286 286 286 285 285 285 285 284 284 284 283 283 284 285 285 285 284 283 282 281 279 279 277 276 275 274 273 271 270 270 269 268 267 266 267 267
281 282 281 283 281 281 283 280 281 285 287 285 284 284 284 286 278 278 284 283 284 282 285 289 288 287 287 287 287 290 287 284 285 286 285 286 286 286 285 284 284 283 284 286 285 285 284 284 285 285 285 285 285 284 283 284 283 283 283 282 282 283 284 284 284 284 283 282 281 280 278 277 276 275 274 272 271 269 268 269 268 267 266 266 267 265
281 280 278 280 282 282 281 280 279 276 284 284 283 283 283 282 284 284 283 283 284 285 285 286 288 287 288 287 288 287 284 284 284 285 286 285 285 284 284 284 283 283 282 282 283 284 284 283 283 284 284 283 283 282 282 282 281 282 282 281 282 283 283 283 283 283 282 281 280 278 276 275 273 272 271 270 269 268 267 266 265 265 265 266 265 263
286 280 281 282 287 278 280 277 278 285 283 285 287 284 285 287 285 285 286 283 284 284 286 287 287 287 288 288 287 285 285 284 284 284 285 284 284 284 284 284 284 284 283 283 283 283 284 284 284 284 283 281 281 281 281 281 280 281 281 281 284 283 282 282 282 282 281 279 278 276 274 272 271 270 269 268 268 267 266 265 264 264 264 264 264 264
287 284 285 282 287 283 282 284 283 282 285 286 285 285 287 287 285 287 288 287 284 284 286 287 287 286 286 287 286 285 284 284 284 284 283 284 283 283 283 283 284 283 283 283 282 282 282 283 283 283 282 281 279 279 280 281 280 280 279 282 283 282 281 281 279 279 278 277 276 274 272 270 269 268 267 267 267 266 266 264 263 263 264 263 264 266
282 283 284 285 284 282 282 283 283 283 284 283 283 284 285 284 284 285 286 285 286 286 286 286 287 286 285 285 284 284 284 284 284 283 283 283 283 283 283 283 282 282 282 282 281 281 281 282 282 281 281 280 279 278 279 279 280 279 280 282 282 282 280 278 277 276 276 276 275 273 271 268 267 266 265 265 266 266 267 265 264 265 265 264 265 265
283 283 284 282 285 284 280 281 282 283 284 284 284 284 283 283 284 283 284 286 286 285 285 285 285 285 285 285 284 284 284 284 284 284 283 283 283 283 282 282 282 282 282 281 282 280 279 280 280 280 280 280 279 278 278 278 279 280 281 280 281 280 278 276 275 275 274 274 274 271 269 267 267 266 264 264 265 266 267 267 265 266 266 266 266 266
281 284 282 283 281 282 280 280 280 280 281 282 284 284 284 284 282 282 283 282 282 284 284 283 284 284 285 284 284 284 284 284 283 283 283 283 283 283 283 282 282 282 282 283 282 280 279 279 280 280 280 280 281 279 277 277 277 278 279 279 278 277 275 274 274 274 274 273 272 270 267 267 266 265 264 263 264 265 266 266 266 266 267 267 267 267
284 285 279 283 279 279 278 280 280 281 281 282 283 283 285 285 284 283 282 282 282 282 282 282 283 283 285 284 284 284 283 283 283 283 283 283 282 282 283 282 282 282 282 282 281 279 279 279 279 280 280 281 282 280 278 276 277 277 277 277 275 274 273 274 272 273 273 271 270 269 267 267 266 266 266 264 264 265 266 266 266 266 267 268 269 269
283 279 283 281 277 277 278 280 281 279 279 281 282 283 283 284 283 283 282 281 282 282 282 282 282 282 283 283 284 284 283 283 283 283 283 283 283 282 282 282 282 282 282 282 281 279 279 279 279 279 280 281 281 280 279 277 276 276 276 276 273 272 273 273 272 271 271 270 269 268 266 266 266 266 266 265 264 263 264 266 269 268 267 266 268 270
282 283 282 279 280 279 283 282 283 283 282 283 284 284 284 284 283 283 282 283 283 283 283 283 282 280 280 281 282 283 283 283 283 283 283 282 282 283 282 282 281 281 281 281 280 278 278 278 278 278 278 279 279 279 279 278 277 275 275 275 273 271 272 271 272 271 271 270 269 269 267 266 266 266 266 266 265 264 264 264 266 270 270 270 269 269
Wind_Speed
4 8 8 9 11 11 12 14 14 11 4 3 4 8 10 10 11 4 4 4 3 3 11 12 13 15 14 11 12 11 9 9 9 9 8 7 7 6 5 5 5 5 4 4 3 2 2 2 3 3 2 3 3 4 5 5 5 5 5 5 6 4 4 5 6 6 6 7 7 8 9 9 8 8 9 9 9 9 9 10 10 11 10 10 10 10
3 9 12 15 13 12 12 12 12 7 5 8 9 9 8 9 10 8 1 5 2 4 9 10 11 12 13 13 7 10 10 11 12 11 11 10 9 7 7 7 6 5 4 4 4 3 3 3 3 3 2 2 3 4 5 5 5 5 5 5 5 4 5 5 5 5 6 5 6 7 8 8 7 7 7 8 8 8 9 10 10 9 10 10 11 10
8 12 13 14 11 3 1 6 8 9 9 8 8 8 8 9 9 6 6 5 3 2 10 12 15 14 13 14 10 12 13 10 11 11 10 10 10 7 7 7 7 6 6 6 5 4 4 4 3 3 3 3 4 4 5 4 4 4 4 4 4 4 5 5 6 6 7 7 7 8 9 9 9 8 8 9 9 9 10 10 10 10 10 10 10 10
9 11 17 10 4 4 4 6 7 8 9 8 7 8 10 6 4 6 6 1 3 5 4 5 9 12 14 14 12 12 11 8 5 4 4 6 9 8 8 7 7 8 8 8 7 7 6 5 5 3 3 3 3 4 4 4 4 4 4 4 5 6 6 6 7 8 10 10 11 11 10 10 10 9 9 10 10 10 10 11 10 10 10 10 10 11
13 1 3 8 6 8 9 8 9 8 9 9 11 9 8 9 7 8 3 3 2 8 7 10 11 13 14 15 9 7 4 4 4 3 4 4 3 4 4 5 7 9 9 8 8 7 7 6 5 5 4 4 4 4 4 3 3 4 5 6 6 7 7 7 8 9 10 10 11 11 11 11 11 10 9 9 9 9 9 9 10 10 10 10 10 10
16 3 4 6 6 7 8 8 10 8 9 9 12 12 12 10 11 9 6 5 8 9 9 8 6 9 9 11 13 9 5 8 7 9 10 9 9 7 7 8 6 6 6 8 8 8 8 7 6 6 5 4 4 4 3 3 4 5 6 6 7 7 7 8 9 8 7 7 8 8 8 8 8 8 7 8 8 8 8 9 8 10 10 10 10 10
5 7 6 8 7 7 9 9 9 11 9 9 6 11 13 12 11 9 10 1 5 7 2 4 8 8 1 5 7 8 9 10 9 11 11 11 11 10 9 9 9 9 7 7 8 8 8 7 7 7 5 5 5 4 3 3 4 5 6 6 6 6 6 5 5 5 5 5 5 7 8 8 8 10 8 8 8 8 7 7 9 8 9 10 10 10
6 6 5 5 7 8 9 10 10 12 8 9 4 0 4 7 9 9 9 9 9 6 4 6 6 10 10 9 3 8 9 10 11 12 13 12 12 12 11 10 10 10 10 8 9 9 8 8 8 8 6 5 5 4 3 4 4 5 6 6 6 6 6 4 4 4 4 6 7 9 10 9 9 9 10 9 8 8 7 8 9 8 8 9 9 9
9 9 10 9 9 8 11 10 6 12 10 2 2 2 2 3 6 6 7 8 7 5 8 7 9 6 9 9 6 9 7 11 13 14 14 14 13 13 12 11 11 11 11 10 9 9 9 8 7 7 6 6 5 4 4 4 4 4 5 5 6 6 6 5 6 6 7 7 8 8 9 10 8 9 8 8 7 7 7 9 8 8 8 8 9 9
3 2 8 12 9 10 5 6 2 10 11 3 4 6 5 2 1 5 5 6 7 7 12 9 10 8 12 6 7 6 8 13 13 14 15 15 15 13 12 12 12 10 10 9 9 9 8 7 6 6 7 6 4 4 4 4 4 4 5 6 7 7 6 6 7 8 8 8 7 8 9 11 10 8 8 7 8 7 7 8 8 7 7 6 7 7
2 1 4 3 8 2 6 6 6 5 5 9 6 5 4 3 3 3 5 5 4 12 13 11 13 11 9 4 9 7 7 9 8 7 9 13 13 13 12 13 12 11 10 9 9 9 8 7 7 6 7 6 5 4 4 4 4 5 5 7 8 7 6 7 7 8 8 8 8 8 9 10 11 10 9 8 8 7 7 7 7 7 6 6 6 6
4 4 3 2 5 4 5 6 5 2 3 7 4 5 4 3 3 4 4 4 8 14 7 13 16 15 12 4 7 10 4 1 4 10 13 15 15 14 14 13 13 12 11 10 9 9 9 8 7 6 7 7 6 5 5 4 5 5 6 7 9 8 7 7 7 7 8 8 8 9 10 10 9 9 7 8 8 8 8 7 7 6 6 6 6 6
7 8 4 5 3 6 5 5 3 3 3 6 7 7 6 3 3 5 5 8 11 10 3 3 4 9 19 13 6 5 3 4 2 5 13 16 16 15 14 15 13 12 12 11 10 9 9 9 9 8 8 7 7 6 7 6 6 6 7 8 9 8 7 7 7 8 8 8 8 8 9 9 8 8 9 8 8 7 7 6 7 6 6 6 6 6
4 7 11 7 3 9 10 10 6 4 9 10 11 9 7 8 10 11 8 7 8 2 1 3 2 9 5 8 19 18 5 5 5 5 7 14 16 16 16 15 13 12 12 11 10 10 10 9 9 9 9 8 7 8 7 7 7 6 7 8 9 9 8 8 8 8 9 9 8 8 8 8 8 8 7 7 7 7 7 6 7 6 6 6 5 5
6 4 11 13 8 14 15 15 12 6 12 13 11 11 9 8 4 10 9 11 6 2 3 2 5 5 6 3 6 6 5 4 5 3 2 10 12 13 14 13 13 13 12 10 11 11 11 11 11 9 9 9 8 9 8 7 7 7 8 8 10 10 9 8 8 8 9 8 8 8 7 7 7 7 7 7 6 7 7 6 7 6 6 5 5 5
14 9 5 15 3 18 15 13 8 7 6 9 9 7 10 12 6 11 1 3 2 0 3 5 6 3 5 5 4 3 5 3 5 4 5 11 12 13 13 14 13 13 12 11 11 11 12 11 11 9 9 9 8 9 7 8 7 7 8 9 10 10 10 9 8 8 8 8 7 7 8 7 7 7 7 7 6 6 7 7 7 7 6 5 5 4
2 9 8 5 3 13 12 8 9 10 6 8 8 11 10 5 4 5 2 2 0 3 11 6 6 8 5 5 6 6 5 6 5 7 8 11 14 14 13 13 14 13 13 12 12 12 13 11 10 10 10 9 9 9 9 9 8 9 9 10 11 10 9 9 9 8 8 8 8 7 7 7 7 7 8 7 8 8 7 6 6 6 5 5 4 4
3 1 1 7 8 2 4 4 5 4 2 8 7 9 6 4 5 1 8 2 4 10 8 8 11 8 7 8 8 8 7 8 9 9 10 11 13 15 13 14 14 14 13 12 11 11 12 11 12 10 10 10 10 10 9 9 8 8 8 10 11 10 11 9 9 8 8 9 8 8 7 7 7 8 8 8 8 7 6 6 5 5 5 5 4 3
4 9 6 3 3 5 2 3 3 3 3 3 2 3 9 7 7 9 2 9 9 11 8 8 12 12 12 9 6 10 11 11 12 11 11 13 14 14 14 15 14 13 12 13 13 13 13 12 12 12 12 11 11 10 9 9 7 8 8 9 9 11 10 10 8 8 7 7 6 6 7 8 8 7 7 7 7 6 6 6 5 6 5 5 4 3
4 7 2 3 1 5 5 8 9 10 4 1 1 4 3 3 7 8 10 3 3 11 6 10 8 11 11 11 12 14 14 13 13 13 14 15 16 14 14 15 17 16 14 14 14 13 13 13 13 13 13 12 12 11 9 9 7 9 9 10 9 9 9 9 9 9 9 7 6 7 7 7 7 7 7 7 7 6 6 6 6 5 5 5 4 3
6 5 8 4 2 7 6 9 12 14 13 8 6 9 4 4 3 5 4 8 6 8 9 10 10 5 7 12 13 14 15 14 16 15 13 13 15 14 16 17 17 16 15 15 14 14 14 14 13 12 11 10 9 8 8 8 9 9 8 9 10 11 10 10 9 9 8 7 7 8 8 8 7 7 6 7 7 7 6 6 5 5 5 4 4 3
4 7 10 5 4 9 6 8 11 8 13 14 14 16 16 11 8 7 11 6 6 4 7 5 14 4 3 3 5 11 10 11 13 14 13 14 14 15 14 16 16 15 15 15 14 14 13 13 13 11 10 9 10 10 10 9 9 9 9 9 10 9 9 10 9 8 9 7 8 8 8 8 7 6 6 7 6 7 6 5 5 5 4 5 4 3
6 2 6 7 8 9 7 4 2 2 4 5 9 11 12 10 9 9 11 5 1 6 3 3 7 8 5 2 4 5 5 4 7 9 10 12 14 14 13 15 15 16 16 16 14 13 12 12 13 13 13 13 12 11 11 10 10 10 10 10 10 10 10 9 9 8 8 8 8 8 7 7 7 7 7 7 7 7 6 6 5 4 4 4 4 3
8 2 5 9 2 2 4 4 2 2 1 6 9 6 6 16 14 10 4 1 7 3 3 5 10 5 4 4 4 5 4 3 4 7 9 10 11 12 13 14 15 15 13 12 10 10 11 12 12 11 13 13 12 12 12 11 10 10 10 10 10 11 12 10 9 9 9 8 8 8 8 7 7 8 7 7 6 7 6 6 5 4 4 4 3 3
4 3 4 4 5 4 4 4 5 2 4 8 10 12 11 3 6 6 2 1 5 11 7 7 16 3 2 3 2 3 3 2 3 3 6 10 9 10 12 12 11 14 12 12 11 12 11 12 13 13 12 12 12 12 12 12 12 11 12 11 11 11 11 10 9 10 9 9 10 9 8 8 7 7 7 7 6 7 6 5 5 4 4 4 4 3
9 8 12 10 14 14 12 12 13 11 13 7 6 9 13 18 12 5 9 9 11 9 9 11 14 1 2 1 1 2 1 2 2 6 4 5 9 10 10 11 11 12 11 13 11 11 13 13 11 11 13 12 12 13 13 13 13 12 12 12 11 11 11 11 10 10 10 9 10 9 9 8 7 7 8 7 7 7 6 5 5 5 4 4 4 4
1 4 14 16 15 15 10 2 3 11 7 9 16 17 17 16 17 9 7 6 14 1 9 20 15 2 4 6 6 6 5 7 8 7 10 7 7 8 8 9 10 10 11 13 13 10 9 10 15 14 13 12 13 13 12 13 13 13 12 13 12 11 11 11 11 11 10 10 10 9 9 8 8 8 8 7 7 6 5 5 5 5 5 4 4 4
2 2 13 17 20 21 14 3 7 13 14 16 14 19 19 15 16 17 14 20 11 1 18 18 10 15 11 10 10 11 8 8 7 9 8 8 9 10 10 9 9 8 8 7 8 12 15 16 14 14 14 14 13 13 12 12 12 13 12 13 12 12 11 9 11 11 10 10 9 8 9 9 8 8 7 7 7 6 6 5 5 5 4 4 4 4
5 9 15 14 20 21 15 7 6 6 10 10 15 17 19 20 15 19 24 24 13 13 16 4 15 13 15 13 13 12 11 12 11 10 8 9 9 9 10 10 11 11 11 11 14 14 13 14 14 15 14 14 14 15 15 12 12 12 11 11 12 12 12 10 11 10 10 9 9 9 9 8 7 7 7 7 7 7 6 6 5 5 4 4 4 3
2 10 11 10 17 17 18 17 8 7 8 9 12 16 17 21 25 26 25 24 23 21 22 7 9 12 10 11 12 12 10 8 5 7 6 8 9 9 9 9 10 11 13 16 16 15 15 15 13 13 13 13 16 16 14 14 14 14 13 13 12 12 10 11 11 12 11 11 10 9 8 8 7 7 7 7 7 7 6 6 5 5 5 4 4 4
8 12 10 8 9 16 20 17 14 10 8 13 14 13 16 21 23 23 22 21 18 21 23 18 16 14 7 8 10 6 6 6 6 5 5 5 6 6 7 8 9 10 12 12 13 14 13 13 12 11 13 14 15 16 15 13 13 12 13 12 12 13 12 11 12 12 12 11 11 10 10 9 8 8 8 7 7 5 7 6 5 4 3 3 3 5
7 4 4 7 9 16 15 13 15 7 7 12 16 20 21 18 14 18 19 19 18 23 24 19 16 15 7 7 6 6 6 7 7 5 4 3 6 6 7 9 9 11 12 12 13 13 13 13 13 13 14 14 15 15 14 13 13 14 14 14 13 13 12 12 13 13 13 12 12 11 11 9 9 8 8 6 5 5 5 4 4 4 4 4 4 4
7 6 6 6 11 15 12 5 11 3 2 9 18 30 26 17 13 15 16 17 23 21 14 14 21 5 9 8 9 2 6 5 3 3 4 4 6 8 10 11 10 9 11 12 12 12 12 13 14 13 13 12 13 14 15 15 13 13 14 14 14 12 13 13 14 14 13 13 12 10 10 10 7 7 6 5 5 5 5 5 4 4 5 5 4 4
4 6 8 4 7 6 1 4 5 5 12 18 9 6 11 18 19 17 19 22 18 14 14 11 4 5 9 7 11 9 5 5 8 8 7 9 9 10 9 8 8 8 8 8 9 10 10 9 9 10 11 12 12 12 11 12 12 11 11 12 12 13 14 14 13 12 11 11 11 9 9 9 8 7 6 5 5 5 5 5 5 5 4 4 4 4
13 10 11 5 5 5 4 8 5 12 18 1 5 6 4 11 17 19 18 13 15 15 12 11 5 8 10 9 9 9 10 5 1 3 6 6 8 8 10 8 8 8 8 8 9 10 10 10 10 10 10 11 13 12 12 12 13 12 12 14 15 15 14 14 13 13 14 14 11 9 8 9 6 7 6 6 6 6 6 6 5 6 5 5 5 5
13 11 7 5 4 3 4 8 8 10 1 3 2 5 2 2 9 11 14 15 13 14 14 14 13 6 7 4 4 3 2 3 1 1 1 2 3 6 8 8 7 7 8 7 9 9 9 10 11 12 12 10 10 11 12 13 13 13 15 14 15 14 14 15 14 15 15 13 11 9 8 8 7 8 6 7 6 6 7 6 6 6 5 5 4 4
11 9 8 6 6 9 5 12 8 5 4 3 1 3 8 8 10 13 12 15 13 9 9 10 12 5 8 3 4 3 3 1 1 4 6 6 5 3 4 3 5 5 5 4 5 6 7 7 8 9 8 8 9 11 11 10 11 13 12 13 13 12 8 12 13 15 14 11 12 13 11 9 11 11 10 7 7 7 7 7 7 6 5 5 5 5
2 12 5 10 5 8 4 4 3 4 12 5 2 7 2 2 5 9 8 4 4 8 8 8 9 7 7 7 6 4 4 3 4 6 7 7 7 5 1 3 3 3 4 5 5 5 5 5 4 5 7 8 8 9 8 9 10 11 11 11 11 11 12 14 15 14 14 14 14 13 14 13 14 13 12 11 12 11 7 6 5 6 5 6 5 5
3 2 1 7 1 5 6 8 7 9 4 3 1 1 2 2 6 5 2 8 1 3 6 9 9 10 12 11 7 5 5 5 6 5 5 9 8 8 7 4 4 4 5 4 5 5 5 5 6 6 6 7 8 8 8 9 10 10 9 10 11 12 12 14 14 16 15 15 14 15 15 13 13 14 13 14 13 11 10 8 7 6 5 4 4 3
4 3 4 4 5 6 7 6 8 2 1 2 3 1 1 1 4 6 1 5 3 8 4 7 9 9 8 10 11 7 8 7 6 1 4 6 7 6 7 8 7 6 5 5 4 5 6 6 7 6 6 7 7 7 7 6 8 8 10 11 11 11 13 17 17 16 16 14 14 14 13 12 13 13 14 14 12 9 8 5 5 6 6 4 3 4
5 3 7 9 7 6 8 5 2 3 2 2 5 5 3 1 2 6 8 1 1 1 2 3 5 8 9 10 9 5 7 2 2 5 4 6 6 5 4 5 6 6 7 6 6 6 5 5 5 5 6 5 5 6 6 5 7 8 9 9 10 14 16 15 9 12 11 12 11 12 13 12 13 14 12 11 11 8 8 5 6 6 5 5 4 4
2 3 1 2 6 9 7 6 4 2 1 4 3 4 3 4 4 7 1 1 6 4 2 5 6 8 9 11 9 7 3 5 4 3 5 5 5 6 6 6 7 6 6 6 7 6 5 5 4 4 3 3 5 5 5 7 8 7 8 7 11 15 14 9 10 11 11 11 11 12 12 12 10 9 9 9 9 10 8 4 5 5 5 4 4 5
7 7 5 7 3 2 1 5 1 6 1 5 8 4 3 3 2 6 5 3 2 3 6 3 6 7 9 8 8 4 6 4 4 4 4 4 5 6 7 6 7 7 7 6 5 4 6 5 5 6 6 4 5 5 4 7 8 7 7 10 16 11 8 10 9 11 10 11 10 10 10 9 10 10 8 9 10 11 10 6 6 6 5 5 4 5
2 4 3 3 3 3 6 7 4 0 4 8 8 5 4 1 3 6 7 4 2 1 1 3 1 5 8 6 7 6 6 6 3 4 4 4 4 4 4 4 5 5 5 4 5 7 5 5 6 5 5 5 4 4 6 9 9 8 9 14 13 6 6 6 7 7 9 9 9 9 9 9 9 9 8 10 10 9 10 8 6 5 5 5 5 5
4 5 1 2 3 5 3 1 1 3 3 4 3 2 8 4 3 3 6 5 5 2 2 2 5 5 6 4 4 7 4 4 4 4 5 4 3 3 5 5 5 5 6 6 5 5 4 6 4 5 4 5 4 3 7 7 9 9 11 14 7 6 7 7 6 8 9 10 10 10 9 8 8 9 9 9 11 11 8 8 8 6 5 6 5 5
5 1 2 0 1 3 2 3 2 2 5 4 3 4 5 4 1 1 5 3 3 3 6 7 7 5 6 5 6 3 5 5 5 4 3 3 3 2 2 3 2 2 3 3 3 6 4 3 2 3 4 3 5 4 6 7 8 11 14 10 6 6 5 6 8 9 11 10 9 9 9 10 8 8 8 9 5 5 4 6 7 7 6 6 6 6
3 3 1 2 1 4 4 4 3 4 5 2 3 3 4 2 1 1 3 1 2 4 4 3 0 4 6 6 7 6 5 5 5 4 4 3 3 4 4 5 4 6 6 6 7 6 4 4 4 5 5 6 5 7 7 8 9 11 7 3 4 5 6 7 9 9 8 9 8 7 9 12 8 6 6 6 4 5 5 6 6 6 6 7 7 7
2 7 2 4 1 3 0 3 2 2 1 2 1 1 3 2 1 1 1 2 3 2 1 2 3 5 6 5 5 4 6 6 6 5 4 4 4 4 5 5 6 5 7 6 4 5 4 5 7 7 7 8 7 7 8 9 11 12 8 3 3 5 7 8 9 11 11 10 7 7 8 10 11 10 6 7 7 7 6 6 7 8 9 9 9 8
4 9 3 4 4 2 3 1 1 2 1 3 2 3 2 1 3 2 2 1 1 3 3 3 3 2 4 5 4 3 5 4 5 5 5 4 4 4 6 7 8 8 6 5 5 7 8 8 8 8 8 9 8 6 7 9 10 10 9 6 4 6 8 9 9 8 7 6 6 6 5 4 4 5 6 6 6 5 5 6 7 7 4 2 2 3
5 3 4 5 2 3 5 6 8 5 2 4 5 8 8 6 4 4 3 2 2 3 3 4 2 3 2 3 3 3 4 5 4 5 6 5 6 7 7 8 6 6 6 4 3 5 6 6 7 7 8 8 4 4 6 8 9 7 6 5 4 6 8 8 7 6 7 7 5 5 6 5 5 4 4 4 5 4 3 4 7 5 3 1 5 7
7 6 7 4 4 2 4 8 7 2 3 3 9 10 10 8 6 5 5 5 4 3 4 4 4 2 2 2 1 4 4 6 6 6 6 5 6 6 7 7 7 8 8 5 5 6 7 8 7 5 7 8 4 5 6 7 5 4 5 5 5 6 6 5 5 4 3 6 6 8 5 5 5 5 4 4 4 4 4 2 5 11 13 10 8 10
Wind_Direction
162 212 216 220 228 227 224 223 231 259 302 308 292 275 269 272 270 265 152 100 114 268 256 261 261 263 262 245 180 173 175 197 204 200 200 198 194 190 188 183 179 171 150 109 103 83 70 71 60 65 57 74 67 63 74 71 62 59 72 81 78 68 84 103 103 95 92 93 90 79 77 80 73 71 69 64 58 54 49 43 44 42 41 36 34 33
194 229 233 235 238 247 246 224 233 243 257 269 275 268 264 252 265 280 213 122 140 243 275 271 269 261 265 267 187 163 173 203 202 203 203 194 192 189 187 181 181 164 119 150 146 135 123 97 88 91 92 103 108 73 79 75 70 74 77 79 80 73 68 71 78 86 83 79 90 100 94 94 84 79 74 72 63 64 59 53 51 50 46 45 43 36
208 224 235 241 251 233 263 219 230 242 251 247 252 256 261 258 269 261 140 144 171 202 272 271 267 267 262 263 172 182 192 205 205 207 202 189 187 186 185 182 176 164 163 165 153 146 130 118 110 113 106 93 85 85 80 80 91 88 89 82 78 72 76 75 82 87 88 86 86 96 98 96 93 80 80 80 79 73 69 61 54 51 50 48 47 45
237 236 237 242 156 187 203 223 228 238 244 245 230 234 242 269 250 259 123 211 185 230 311 357 295 276 268 261 194 199 198 196 154 158 156 186 189 189 189 181 179 179 169 170 166 161 144 138 136 124 122 105 107 104 98 93 89 86 84 82 80 75 73 76 71 83 89 89 91 88 96 95 94 99 92 86 78 73 69 62 56 51 49 48 49 44
229 57 41 170 193 216 232 211 214 222 237 221 233 244 249 242 235 242 299 133 166 243 249 274 278 270 256 245 203 180 148 133 166 177 193 202 207 180 157 169 186 179 173 165 157 153 152 150 145 145 131 127 115 98 86 75 89 89 90 88 87 84 85 89 96 97 101 103 98 99 102 104 104 97 91 85 74 67 64 63 52 47 48 49 49 45
247 171 158 169 195 217 223 214 208 219 241 243 219 223 246 256 268 267 265 326 286 280 190 219 290 270 255 232 216 154 178 213 191 196 207 199 196 184 188 188 179 172 168 163 162 157 154 151 143 140 142 129 113 106 80 74 91 102 102 100 97 97 96 103 107 112 114 116 123 127 121 114 105 93 80 73 78 73 65 65 64 56 51 53 51 50
254 126 189 177 168 206 214 231 215 202 244 253 264 200 232 252 267 268 269 216 270 264 69 198 244 281 263 220 178 157 188 199 180 205 206 195 193 190 193 185 178 173 160 153 149 149 153 153 153 147 140 133 121 109 100 94 92 98 100 101 103 103 101 98 111 127 136 130 114 103 98 98 100 101 88 90 87 87 84 78 70 65 56 52 54 49
138 168 155 165 191 206 218 228 215 200 231 247 47 234 197 246 246 249 244 238 256 309 170 208 240 275 276 262 145 160 185 195 198 208 207 198 189 185 185 180 176 173 168 161 158 159 158 159 159 149 134 133 124 117 108 95 96 99 102 102 103 102 106 99 102 97 99 102 97 98 97 95 97 99 105 99 93 91 90 86 79 75 66 57 55 54
174 171 179 194 200 209 224 235 184 189 218 257 75 59 198 243 260 247 244 245 255 287 261 202 204 259 256 249 188 178 214 213 213 201 200 196 190 181 179 176 171 164 163 160 159 160 158 157 149 139 133 115 113 113 107 105 98 96 100 103 103 106 105 98 95 97 96 100 104 104 106 102 98 102 103 104 101 98 95 91 87 82 77 70 61 55
20 154 197 202 193 220 184 60 118 182 225 119 123 79 77 87 79 239 236 246 249 241 248 227 187 241 266 237 210 195 241 249 233 200 190 187 182 176 174 169 163 155 152 155 156 154 152 147 133 126 121 122 105 95 104 107 111 112 116 114 113 106 104 103 99 98 99 101 103 104 107 111 112 112 109 107 106 101 97 93 89 82 77 72 67 58
107 146 14 249 220 255 87 65 37 33 59 129 142 131 115 145 191 185 235 248 263 246 243 220 211 212 278 220 214 201 220 230 237 164 161 170 171 170 170 163 161 157 153 153 152 150 143 134 130 130 134 125 117 118 131 125 127 127 125 125 117 111 109 108 104 105 102 101 105 109 112 112 113 113 115 115 110 107 101 95 91 84 79 72 68 64
173 105 180 215 62 95 122 85 53 23 146 163 161 182 176 207 189 218 221 213 246 260 240 208 221 202 237 220 211 234 80 168 180 159 163 170 173 171 168 164 161 157 156 155 153 153 146 137 137 144 137 138 136 142 141 140 134 137 134 131 123 117 114 109 106 105 103 105 105 106 109 109 111 115 114 112 110 106 103 100 97 93 87 78 72 64
229 208 174 111 289 182 156 162 92 130 172 208 188 189 192 226 151 227 183 218 215 252 95 58 131 214 234 240 256 225 143 121 71 155 169 173 171 167 164 162 158 158 156 160 160 156 157 157 155 157 151 146 154 155 153 150 146 143 142 139 130 122 119 112 110 108 109 107 105 107 106 104 104 105 108 107 107 106 101 96 95 93 87 78 67 58
245 183 188 182 135 216 190 191 156 186 196 190 197 184 193 230 233 251 238 237 254 138 15 104 208 252 299 255 231 245 96 86 91 45 162 168 168 164 161 159 156 158 161 162 161 162 162 162 162 162 156 159 159 159 157 154 152 147 143 141 131 124 122 118 115 114 109 102 103 103 104 105 106 107 107 102 101 98 96 93 90 88 87 83 78 70
234 219 213 164 224 163 202 212 192 196 169 201 197 193 205 209 230 252 237 236 237 269 98 228 139 236 168 203 50 58 82 95 74 69 112 153 154 152 152 152 152 156 161 161 166 168 165 165 165 163 161 162 163 162 161 160 157 150 144 140 134 129 127 126 121 116 111 107 104 103 104 107 111 109 105 99 96 96 96 94 96 91 88 88 82 74
222 252 123 176 59 154 194 208 232 186 166 196 201 221 231 228 241 252 346 324 1 13 202 182 223 239 213 96 111 115 136 123 129 121 146 153 149 148 152 160 162 163 163 166 167 167 169 167 164 162 162 163 164 164 164 166 158 153 145 141 140 136 133 129 125 119 116 112 108 107 108 107 105 103 105 102 99 93 91 94 93 93 92 95 98 93
145 236 118 116 160 177 189 172 182 166 215 170 176 214 208 24 258 277 140 141 163 291 255 158 241 242 296 208 146 168 150 158 152 149 164 158 158 156 165 167 166 167 168 170 171 171 169 166 166 165 165 165 166 168 172 169 164 156 149 147 142 138 134 133 129 125 120 115 114 111 111 113 113 112 107 106 103 100 100 100 99 100 103 104 99 101
224 167 14 162 194 80 28 336 194 20 357 114 213 208 68 34 5 252 258 208 218 255 266 162 219 230 180 252 132 152 188 178 179 169 168 168 168 168 172 173 172 172 172 168 168 169 170 168 167 166 168 169 170 171 170 166 162 154 154 153 145 145 142 139 135 130 126 125 122 123 121 116 112 109 109 112 114 113 112 112 116 122 112 98 100 101
185 260 167 221 78 94 44 105 214 194 333 256 234 55 159 209 221 216 239 252 247 245 263 220 218 234 212 213 147 186 191 189 185 173 170 178 181 179 173 175 171 166 164 169 174 174 176 174 172 171 169 168 171 170 167 163 157 154 155 153 152 148 146 141 136 132 130 129 130 133 129 125 120 120 119 119 119 120 121 117 111 109 114 117 108 101
185 235 184 332 154 134 158 180 204 187 171 318 238 255 250 335 233 197 204 278 257 257 249 263 185 245 196 221 178 190 194 187 172 174 192 186 183 180 174 174 173 174 175 174 177 179 176 173 172 171 169 169 169 167 166 161 160 161 156 154 152 144 142 140 139 141 141 142 140 135 131 129 128 126 124 127 129 124 120 117 116 115 110 103 100 98
217 157 267 109 312 141 198 189 211 179 183 185 212 219 173 219 22 334 275 221 223 249 247 272 260 233 209 198 200 195 190 179 173 185 186 185 185 182 176 175 178 177 174 177 179 178 174 170 168 167 165 161 159 162 160 164 167 164 159 161 157 153 151 150 148 147 145 144 145 143 143 139 135 130 130 132 128 122 119 116 114 109 108 109 99 101
199 185 229 137 195 206 226 184 215 219 200 190 189 201 194 180 190 210 246 191 235 223 249 252 261 279 85 40 191 198 189 172 180 174 175 179 177 179 179 183 179 175 180 178 177 174 167 163 161 159 156 157 161 166 168 167 169 169 169 167 160 157 159 156 155 153 149 149 151 154 147 144 139 139 139 137 131 123 123 121 113 117 118 109 103 97
188 182 221 211 205 208 209 71 24 65 3 251 212 217 203 213 202 204 230 194 96 239 27 278 316 265 91 64 49 59 42 77 144 154 164 171 173 178 183 180 181 181 177 177 173 168 159 159 162 164 164 166 169 169 171 170 174 175 172 169 167 164 165 162 157 152 152 153 157 155 150 146 147 147 148 142 135 130 127 120 117 116 123 118 118 121
77 186 214 243 160 134 105 145 89 44 225 268 254 249 214 212 200 217 248 77 205 178 204 230 246 273 72 34 43 53 45 25 53 156 160 165 168 175 173 177 178 177 181 170 160 149 152 159 157 160 166 169 172 173 175 174 175 175 176 174 170 171 165 162 159 158 159 158 158 155 155 155 153 156 154 145 135 133 127 126 123 125 126 135 143 150
148 226 202 222 251 217 200 159 195 132 197 229 222 208 221 274 224 213 33 351 274 222 193 211 251 236 136 30 33 17 94 97 151 135 157 158 164 165 169 173 176 176 169 162 152 152 151 158 168 172 170 174 174 173 176 177 179 178 180 177 175 172 167 164 162 161 162 163 161 161 162 161 162 164 157 144 136 133 131 132 136 138 148 153 156 157
184 168 168 199 222 228 222 213 207 189 203 206 226 223 204 213 210 155 223 216 239 237 171 226 244 334 44 75 263 209 198 185 152 174 165 160 167 159 165 165 169 172 171 160 144 147 170 175 170 170 173 174 176 178 178 179 180 181 180 181 175 171 169 169 167 166 164 166 164 166 166 164 169 169 159 145 137 139 144 146 147 146 157 164 161 163
198 183 186 201 212 223 232 46 67 124 106 189 211 202 210 204 214 218 244 245 230 145 192 229 227 196 221 211 225 214 200 204 180 181 184 160 155 159 161 169 172 176 167 167 169 168 154 165 184 183 177 177 179 177 178 179 181 182 180 178 175 174 171 170 167 168 168 168 167 169 170 170 175 169 158 147 143 146 151 155 152 158 160 162 168 169
113 234 228 220 221 231 229 144 175 160 188 209 202 208 209 204 202 204 208 226 205 220 249 236 199 234 215 203 209 206 200 208 197 183 179 168 170 168 167 165 166 169 165 151 155 168 181 187 183 180 181 178 179 176 178 181 182 182 179 177 175 176 173 171 169 169 169 169 173 173 173 176 174 166 155 147 145 149 156 154 155 160 157 160 176 171
186 221 221 208 237 241 236 211 175 220 213 207 203 206 200 204 194 204 222 232 209 217 245 110 181 219 227 195 197 199 189 196 193 173 161 156 144 144 152 162 174 179 176 179 186 188 188 186 184 185 181 179 174 177 180 177 180 180 179 179 176 178 176 165 162 164 169 174 179 181 178 172 166 159 147 145 146 153 158 159 160 159 159 176 179 170
125 239 227 190 237 243 240 237 192 213 232 236 220 211 199 200 203 206 218 221 219 233 238 217 190 218 226 190 177 185 192 190 149 100 102 120 145 154 165 172 181 184 187 192 193 193 192 192 185 181 174 173 178 178 179 180 181 182 180 180 176 175 168 162 171 174 178 182 182 175 171 164 158 156 149 153 155 160 160 161 162 162 173 181 183 176
179 239 216 209 245 249 241 240 241 225 220 236 235 233 220 212 207 205 216 224 226 244 251 251 263 257 223 187 167 124 105 82 91 127 127 120 134 156 173 189 191 193 197 197 197 197 198 194 185 170 174 178 181 184 182 182 180 176 179 180 176 176 174 170 174 182 183 184 181 177 169 161 160 157 162 163 159 159 157 163 162 168 177 184 183 181
178 251 72 176 220 249 239 220 230 227 236 245 252 243 235 217 199 203 215 213 207 222 231 237 246 247 157 162 93 107 122 141 154 156 146 143 162 166 194 203 199 197 197 199 198 196 193 191 185 175 181 183 184 184 180 180 179 176 181 181 176 175 174 174 178 180 185 185 183 176 163 161 157 158 163 158 163 153 158 155 158 170 180 188 187 190
190 189 185 174 216 237 248 181 216 148 247 264 248 239 232 223 216 212 221 215 217 216 223 219 232 217 160 148 148 119 147 158 146 156 196 185 181 191 201 204 201 194 194 194 193 193 192 192 193 187 184 183 183 185 185 179 177 178 180 180 179 168 176 181 184 186 188 188 183 168 159 160 157 157 156 162 153 151 147 150 161 177 185 196 192 182
201 207 221 186 234 256 10 145 116 169 216 227 247 335 219 220 208 206 215 217 215 205 220 225 239 128 151 162 175 188 169 197 193 216 198 190 183 196 208 208 200 193 190 188 185 185 188 189 192 191 187 186 185 187 179 178 181 179 178 180 178 180 185 185 190 189 187 183 186 166 158 157 159 159 158 149 150 150 155 161 179 181 188 188 186 190
194 194 219 178 223 219 127 132 173 216 229 267 318 277 324 225 206 209 226 221 217 221 230 243 190 153 182 178 183 186 197 199 166 176 166 174 178 187 191 193 189 186 174 163 169 180 184 185 185 185 184 186 184 180 177 180 186 184 185 186 185 188 187 190 189 191 193 190 176 160 166 165 152 160 149 147 153 158 167 170 174 179 188 186 191 189
190 189 186 213 156 62 154 173 223 231 17 303 323 324 304 53 198 196 229 229 222 215 213 227 235 205 156 151 66 42 96 106 115 334 164 150 194 179 179 192 181 159 161 175 179 183 180 184 187 190 196 189 182 186 187 188 182 182 190 184 189 186 186 187 190 194 191 184 168 156 161 155 165 162 153 156 161 167 174 171 179 178 188 187 191 185
197 192 188 218 169 199 177 202 238 11 294 162 17 203 166 165 171 189 208 231 217 200 190 213 229 196 117 112 111 92 77 87 275 237 184 195 197 216 188 168 147 166 168 162 164 166 173 177 185 188 178 177 179 180 188 181 179 189 190 190 194 184 153 179 192 198 196 185 165 180 175 163 170 166 159 157 163 175 176 168 174 180 183 181 188 181
206 197 191 208 217 195 187 207 272 250 248 236 144 191 66 12 183 185 189 252 176 206 194 192 213 153 145 131 135 142 139 138 234 233 196 195 173 181 131 81 91 122 135 123 108 109 130 144 148 160 166 172 177 178 176 172 176 180 184 180 170 175 174 190 203 200 195 185 192 165 180 183 185 182 178 168 179 170 173 158 164 180 179 180 185 183
61 84 38 200 209 146 206 224 212 221 244 83 193 155 50 29 103 80 78 249 203 159 188 177 204 172 166 154 159 162 140 208 230 228 167 167 166 170 162 146 113 104 102 117 135 137 136 135 138 138 143 155 164 173 165 160 165 172 173 168 168 175 184 198 202 203 197 193 186 181 183 183 186 187 184 188 180 170 177 170 171 167 168 184 180 173
153 185 170 219 206 201 205 216 225 244 263 216 219 241 230 337 121 93 65 266 188 185 202 189 190 158 161 155 149 164 174 211 232 197 109 139 151 162 160 144 133 121 117 107 100 119 119 119 117 135 155 170 172 163 153 146 162 177 182 183 168 182 196 204 205 203 200 194 185 184 187 188 188 191 190 193 179 171 168 139 151 162 170 175 171 170
176 198 204 212 202 205 206 233 314 271 151 133 172 155 131 293 105 158 216 197 145 85 64 109 122 145 141 147 166 167 214 196 80 104 107 107 116 115 89 108 126 141 144 141 127 120 127 142 153 162 169 165 147 134 132 142 164 181 188 173 174 201 207 207 192 197 183 182 184 189 193 193 190 192 194 187 176 144 155 159 164 153 160 163 176 167
185 133 289 185 224 216 215 226 236 303 137 134 51 106 181 121 187 204 184 305 123 159 119 120 129 147 156 167 182 200 105 112 127 104 128 139 139 138 121 110 98 83 78 107 133 142 136 144 152 143 144 148 127 127 140 161 175 185 172 178 199 212 211 194 192 197 191 192 195 195 193 193 195 188 180 167 158 163 168 156 149 153 152 167 169 160
179 162 202 191 192 80 178 243 195 236 122 122 122 62 318 161 294 121 131 35 35 144 137 158 151 156 167 186 196 142 115 115 116 134 115 112 111 132 142 145 147 149 150 139 148 170 148 150 165 173 160 139 130 138 149 162 179 189 191 198 216 207 179 194 197 196 196 197 195 192 190 187 181 180 167 171 173 169 165 139 146 150 154 169 150 155
213 145 200 209 184 161 189 206 212 354 121 190 145 170 165 202 130 130 112 114 15 22 138 136 190 185 189 192 169 129 126 127 113 113 108 90 87 97 120 121 120 124 130 131 141 161 171 163 156 148 145 135 147 156 168 172 184 194 198 219 221 170 195 198 203 193 195 194 194 185 185 182 178 176 175 171 165 163 159 163 156 150 167 168 167 174
219 193 353 182 170 186 216 106 40 334 143 159 34 332 111 129 131 161 126 139 146 217 176 193 209 187 191 173 151 139 136 165 148 145 149 166 144 152 157 161 155 155 156 156 147 150 174 183 163 144 140 151 155 170 180 187 183 195 210 229 209 201 195 195 182 183 190 193 191 189 183 170 175 177 175 171 159 159 166 154 161 169 177 166 187 193
17 140 295 137 295 85 65 141 67 60 130 75 34 345 101 107 35 37 122 116 233 166 171 194 210 167 149 151 129 146 156 158 145 143 137 148 151 126 100 101 114 97 103 105 128 155 176 132 122 156 178 172 164 182 190 198 192 197 222 221 203 197 180 172 177 188 198 196 194 188 166 169 169 165 168 170 178 179 172 158 166 174 172 172 191 193
184 119 150 181 174 154 238 110 104 125 128 91 63 34 38 48 101 51 91 181 230 174 206 245 10 132 139 143 158 162 157 147 160 158 147 125 155 160 160 178 193 186 171 193 196 153 159 168 184 202 205 217 198 189 199 202 214 222 232 190 183 174 170 173 186 197 200 200 193 171 170 175 164 165 157 171 175 187 183 172 176 182 179 178 188 187
242 168 154 205 70 205 49 102 78 14 323 11 49 89 129 143 87 52 26 17 1 31 77 86 81 94 134 155 183 159 142 151 148 159 152 171 178 190 188 195 208 199 213 204 147 163 165 182 197 208 209 227 219 198 204 208 218 226 229 208 156 163 165 184 192 199 203 198 181 167 171 175 180 170 167 179 183 183 189 188 184 189 193 184 185 176
114 130 193 173 146 120 31 287 303 56 135 206 202 268 311 277 180 193 166 81 54 127 115 98 35 121 162 178 160 162 128 148 166 161 161 168 186 196 213 213 217 224 219 203 189 173 191 197 206 216 214 228 224 202 206 218 226 227 219 208 163 162 179 199 202 208 202 179 169 173 160 183 176 185 177 176 186 208 198 187 183 197 207 203 177 192
138 193 159 104 137 209 199 175 171 146 205 168 188 212 225 220 192 193 154 179 193 140 148 159 140 72 66 54 125 140 169 175 171 169 177 191 193 206 216 223 223 224 230 221 196 199 209 215 215 224 229 240 231 206 218 225 231 229 219 205 179 174 193 202 192 196 203 180 168 161 153 180 183 182 190 166 188 190 224 225 217 225 209 186 205 223
187 169 149 173 189 221 153 136 174 75 92 162 188 203 204 194 185 183 196 196 195 194 165 156 147 129 174 228 197 173 184 201 204 185 187 195 210 212 209 211 222 226 226 210 202 215 213 221 220 228 245 249 234 224 229 233 229 210 203 196 189 188 201 182 186 196 197 180 194 188 164 167 178 174 185 175 168 177 192 214 233 228 229 231 215 217